Terminal Aerodrome Forecast
Issued by NWS Chicago, IL

Home | Current Version | Previous Version | Graphics & Text | Print | Product List | Glossary On
Versions: 1 2 3 4 5 6 7 8 9 10 11 12 13 14 15 16 17 18 19 20 21 22 23 24 25 26 27 28 29 30 31 32 33 34 35 36
000
FTUS43 KLOT 271957 AAA
TAFRFD
TAF AMD
KRFD 271957Z 2720/2818 31012KT P6SM SCT050 BKN060
     FM272300 31005KT P6SM FEW040
     FM280100 VRB03KT P6SM SKC
     FM281500 15012KT P6SM FEW050=

USA.gov is the U.S. government's official web portal to all federal, state and local government web resources and services.